Location: Degersen
(52.2871°N, 9.5716°E)
Time: 14:36:46
(UTC+00:00)

Cosmos 1763 Rocket - Pass Details

Date: 20 January 2026
Orbit: 729 x 773 km, 74.0° (Epoch: 16 February)

Event Time Altitude Azimuth Distance (km) Brightness Sun altitude
Exits shadow 04:48:59 38° 332° (NNW) 1,121 4.1 -22.4°
Maximum altitude 04:50:59 85° 246° (WSW) 744 3.3 -22.1°
Drops below altitude 10° 04:56:04 10° 159° (SSE) 2,241 6.2 -21.3°
Sets 04:58:24 0° 159° (SSE) 3,166 7.1 -21.0°
